User: anonymous   Login
Location: Unspecified
(0.0000°N, 0.0000°E)
Time: 00:05:28
(UTC+00:00)
Language:

EOS-8 - Orbit

View from above orbital plane
View from above orbital plane
View from above satellite
View from above satellite

Ground track
Ground track

The orbit is defined by the following mean orbital elements,

1 60454U          26145.59123453 +.00000000 +00000-0 +46788-3 0 00008
2 60454  37.3802 200.6632 0001472 112.4741 247.6179 15.47639497    08
Epoch (UTC): 25 May 2026 14:11:22
Eccentricity: 0.0001472
inclination: 37.3802°
perigee height: 423 km
apogee height: 425 km
right ascension of ascending node: 200.6632°
argument of perigee: 112.4741°
revolutions per day: 15.47639497
mean anomaly at epoch: 247.6179°

The dashed part of the orbit path shows where the satellite is in the earth's shadow,  

DLR